Time,TemperatureF,DewpointF,PressureIn,WindDirection,WindDirectionDegrees,WindSpeedMPH,WindSpeedGustMPH,Humidity,HourlyPrecipIn,Conditions,Clouds,dailyrainin,SoftwareType,DateUTC
2013-06-26 00:07:00,75.6,72.0,29.89,SW,229,2.0,6.0,87,0.00,,,0.00,weatherlink.com 1.10,2013-06-26 04:07:00,
2013-06-26 00:22:00,75.4,71.0,29.89,SSW,196,2.0,4.0,87,0.00,,,0.00,weatherlink.com 1.10,2013-06-26 04:22:00,
2013-06-26 00:37:00,75.2,72.0,29.89,SSW,209,3.0,6.0,88,0.00,,,0.00,weatherlink.com 1.10,2013-06-26 04:37:00,
2013-06-26 00:52:00,74.8,71.0,29.90,WSW,237,3.0,5.0,88,0.00,,,0.00,weatherlink.com 1.10,2013-06-26 04:52:00,
2013-06-26 01:07:00,75.1,71.0,29.91,NW,314,3.0,8.0,88,0.00,,,0.00,weatherlink.com 1.10,2013-06-26 05:07:00,
2013-06-26 01:22:00,75.5,71.0,29.90,NW,306,0.0,6.0,86,0.00,,,0.00,weatherlink.com 1.10,2013-06-26 05:22:00,
2013-06-26 01:37:00,74.8,71.0,29.90,NW,306,0.0,1.0,87,0.00,,,0.00,weatherlink.com 1.10,2013-06-26 05:37:00,
2013-06-26 01:52:00,73.5,71.0,29.89,NW,306,0.0,1.0,90,0.00,,,0.00,weatherlink.com 1.10,2013-06-26 05:52:00,
2013-06-26 02:07:00,72.6,70.0,29.89,NW,306,0.0,0.0,92,0.00,,,0.00,weatherlink.com 1.10,2013-06-26 06:07:00,
2013-06-26 02:22:00,72.0,70.0,29.88,NW,306,2.0,3.0,92,0.00,,,0.00,weatherlink.com 1.10,2013-06-26 06:22:00,
2013-06-26 02:37:00,71.3,69.0,29.88,NW,306,0.0,2.0,93,0.00,,,0.00,weatherlink.com 1.10,2013-06-26 06:37:00,
2013-06-26 02:52:00,70.5,68.0,29.88,NW,306,0.0,2.0,93,0.00,,,0.00,weatherlink.com 1.10,2013-06-26 06:52:00,
2013-06-26 03:07:00,70.5,69.0,29.87,NW,306,0.0,1.0,95,0.00,,,0.00,weatherlink.com 1.10,2013-06-26 07:07:00,
2013-06-26 03:22:00,70.7,69.0,29.87,SSW,200,4.0,4.0,95,0.00,,,0.00,weatherlink.com 1.10,2013-06-26 07:22:00,
2013-06-26 03:37:00,70.9,70.0,29.88,SW,229,1.0,3.0,95,0.00,,,0.00,weatherlink.com 1.10,2013-06-26 07:37:00,
2013-06-26 03:52:00,70.6,69.0,29.88,SW,229,0.0,0.0,95,0.00,,,0.00,weatherlink.com 1.10,2013-06-26 07:52:00,
2013-06-26 04:07:00,70.4,69.0,29.87,SW,229,0.0,2.0,94,0.00,,,0.00,weatherlink.com 1.10,2013-06-26 08:07:00,
2013-06-26 04:22:00,70.1,69.0,29.86,SW,229,0.0,2.0,95,0.00,,,0.00,weatherlink.com 1.10,2013-06-26 08:22:00,
2013-06-26 04:37:00,71.0,70.0,29.86,SW,229,0.0,2.0,95,0.00,,,0.00,weatherlink.com 1.10,2013-06-26 08:37:00,
2013-06-26 04:52:00,70.6,69.0,29.87,SW,229,0.0,0.0,95,0.00,,,0.00,weatherlink.com 1.10,2013-06-26 08:52:00,
2013-06-26 05:07:00,70.2,69.0,29.87,SW,229,0.0,0.0,95,0.00,,,0.00,weatherlink.com 1.10,2013-06-26 09:07:00,
2013-06-26 05:22:00,69.8,69.0,29.87,SW,229,0.0,0.0,96,0.00,,,0.00,weatherlink.com 1.10,2013-06-26 09:22:00,
2013-06-26 05:37:00,68.9,68.0,29.88,WSW,254,1.0,3.0,95,0.00,,,0.00,weatherlink.com 1.10,2013-06-26 09:37:00,
2013-06-26 05:52:00,69.0,68.0,29.89,NNW,338,3.0,5.0,96,0.00,,,0.00,weatherlink.com 1.10,2013-06-26 09:52:00,
2013-06-26 06:07:00,69.2,68.0,29.89,NNW,333,1.0,4.0,96,0.00,,,0.00,weatherlink.com 1.10,2013-06-26 10:07:00,
2013-06-26 06:22:00,68.7,68.0,29.89,NNW,333,0.0,1.0,96,0.00,,,0.00,weatherlink.com 1.10,2013-06-26 10:22:00,
2013-06-26 06:37:00,69.2,68.0,29.89,NNW,333,0.0,2.0,97,0.00,,,0.00,weatherlink.com 1.10,2013-06-26 10:37:00,
2013-06-26 06:52:00,69.7,69.0,29.88,NNW,333,0.0,2.0,97,0.00,,,0.00,weatherlink.com 1.10,2013-06-26 10:52:00,
2013-06-26 07:07:00,70.4,70.0,29.89,NNW,333,0.0,1.0,97,0.00,,,0.00,weatherlink.com 1.10,2013-06-26 11:07:00,
2013-06-26 07:22:00,72.3,71.0,29.89,NNW,327,0.0,1.0,96,0.00,,,0.00,weatherlink.com 1.10,2013-06-26 11:22:00,
2013-06-26 07:38:00,73.2,71.0,29.89,WNW,300,2.0,3.0,91,0.00,,,0.00,weatherlink.com 1.10,2013-06-26 11:38:00,
2013-06-26 07:53:00,74.8,71.0,29.90,NW,321,2.0,3.0,89,0.00,,,0.00,weatherlink.com 1.10,2013-06-26 11:53:00,
2013-06-26 08:08:00,76.0,70.0,29.89,NE,36,2.0,5.0,82,0.00,,,0.00,weatherlink.com 1.10,2013-06-26 12:08:00,
2013-06-26 08:23:00,77.3,70.0,29.90,NE,42,2.0,3.0,79,0.00,,,0.00,weatherlink.com 1.10,2013-06-26 12:23:00,
2013-06-26 08:38:00,77.6,70.0,29.90,East,82,5.0,5.0,77,0.00,,,0.00,weatherlink.com 1.10,2013-06-26 12:38:00,
2013-06-26 08:53:00,78.1,71.0,29.89,East,100,6.0,6.0,78,0.00,,,0.00,weatherlink.com 1.10,2013-06-26 12:53:00,
2013-06-26 09:08:00,78.3,71.0,29.89,East,81,2.0,5.0,79,0.00,,,0.00,weatherlink.com 1.10,2013-06-26 13:08:00,
2013-06-26 09:23:00,79.1,71.0,29.89,NE,41,3.0,5.0,76,0.00,,,0.00,weatherlink.com 1.10,2013-06-26 13:23:00,
2013-06-26 09:38:00,80.1,72.0,29.89,NNE,22,0.0,4.0,77,0.00,,,0.00,weatherlink.com 1.10,2013-06-26 13:38:00,
2013-06-26 09:53:00,80.4,72.0,29.88,SE,126,0.0,5.0,76,0.00,,,0.00,weatherlink.com 1.10,2013-06-26 13:53:00,
2013-06-26 10:08:00,80.7,72.0,29.89,East,86,1.0,6.0,74,0.00,,,0.00,weatherlink.com 1.10,2013-06-26 14:08:00,
2013-06-26 10:23:00,81.4,72.0,29.88,SE,134,0.0,5.0,74,0.00,,,0.00,weatherlink.com 1.10,2013-06-26 14:23:00,
2013-06-26 10:38:00,82.2,72.0,29.87,SE,140,0.0,7.0,72,0.00,,,0.00,weatherlink.com 1.10,2013-06-26 14:38:00,
2013-06-26 10:53:00,82.9,74.0,29.88,SSE,165,2.0,6.0,74,0.00,,,0.00,weatherlink.com 1.10,2013-06-26 14:53:00,
2013-06-26 11:08:00,83.1,73.0,29.88,SSE,162,4.0,6.0,72,0.00,,,0.00,weatherlink.com 1.10,2013-06-26 15:08:00,
2013-06-26 11:23:00,83.9,74.0,29.88,SE,128,2.0,6.0,72,0.00,,,0.00,weatherlink.com 1.10,2013-06-26 15:23:00,
2013-06-26 11:38:00,84.7,74.0,29.88,ESE,103,0.0,6.0,71,0.00,,,0.00,weatherlink.com 1.10,2013-06-26 15:38:00,
2013-06-26 11:54:00,85.3,74.0,29.87,SSE,166,3.0,7.0,69,0.00,,,0.00,weatherlink.com 1.10,2013-06-26 15:54:00,
2013-06-26 12:09:00,85.7,74.0,29.87,ESE,106,5.0,10.0,68,0.00,,,0.00,weatherlink.com 1.10,2013-06-26 16:09:00,
2013-06-26 12:24:00,86.3,74.0,29.86,SE,136,2.0,7.0,66,0.00,,,0.00,weatherlink.com 1.10,2013-06-26 16:24:00,
2013-06-26 12:39:00,86.8,74.0,29.86,ESE,107,2.0,8.0,66,0.00,,,0.00,weatherlink.com 1.10,2013-06-26 16:39:00,
2013-06-26 12:54:00,87.1,74.0,29.86,ESE,108,7.0,9.0,65,0.00,,,0.00,weatherlink.com 1.10,2013-06-26 16:54:00,
2013-06-26 13:09:00,87.3,74.0,29.85,SE,138,7.0,7.0,65,0.00,,,0.00,weatherlink.com 1.10,2013-06-26 17:09:00,
2013-06-26 13:24:00,88.0,72.0,29.86,South,189,1.0,7.0,60,0.00,,,0.00,weatherlink.com 1.10,2013-06-26 17:24:00,
2013-06-26 13:39:00,87.4,73.0,29.85,SSW,196,7.0,9.0,63,0.00,,,0.00,weatherlink.com 1.10,2013-06-26 17:39:00,
2013-06-26 13:54:00,72.8,66.0,29.94,WSW,244,23.0,34.0,78,0.37,,,0.37,weatherlink.com 1.10,2013-06-26 17:54:00,
2013-06-26 14:09:00,67.1,65.0,29.91,SW,227,5.0,26.0,91,1.09,,,1.09,weatherlink.com 1.10,2013-06-26 18:09:00,
2013-06-26 14:24:00,66.5,65.0,29.89,NW,322,11.0,12.0,93,1.32,,,1.32,weatherlink.com 1.10,2013-06-26 18:24:00,
2013-06-26 14:39:00,66.7,65.0,29.86,NW,317,3.0,6.0,95,1.33,,,1.33,weatherlink.com 1.10,2013-06-26 18:39:00,
2013-06-26 14:54:00,67.1,66.0,29.85,WNW,297,4.0,5.0,95,0.90,,,1.33,weatherlink.com 1.10,2013-06-26 18:54:00,
2013-06-26 15:11:00,68.1,67.0,29.83,NE,36,3.0,6.0,96,0.20,,,1.33,weatherlink.com 1.10,2013-06-26 19:11:00,
2013-06-26 15:25:00,69.0,68.0,29.84,NE,42,1.0,4.0,96,0.01,,,1.33,weatherlink.com 1.10,2013-06-26 19:25:00,
2013-06-26 15:41:00,70.1,69.0,29.84,WNW,285,0.0,4.0,96,0.00,,,1.33,weatherlink.com 1.10,2013-06-26 19:41:00,
2013-06-26 15:55:00,70.3,69.0,29.82,SSE,165,3.0,4.0,95,0.00,,,1.33,weatherlink.com 1.10,2013-06-26 19:55:00,
2013-06-26 16:11:00,70.5,69.0,29.83,South,188,6.0,8.0,95,0.00,,,1.33,weatherlink.com 1.10,2013-06-26 20:11:00,
2013-06-26 16:25:00,70.6,69.0,29.84,SW,232,5.0,8.0,94,0.00,,,1.33,weatherlink.com 1.10,2013-06-26 20:25:00,
2013-06-26 16:40:00,71.1,69.0,29.84,WSW,253,0.0,3.0,93,0.00,,,1.33,weatherlink.com 1.10,2013-06-26 20:40:00,
2013-06-26 16:55:00,71.3,70.0,29.85,SSW,203,3.0,7.0,94,0.00,,,1.33,weatherlink.com 1.10,2013-06-26 20:55:00,
2013-06-26 17:11:00,71.8,70.0,29.84,WSW,241,9.0,9.0,93,0.00,,,1.33,weatherlink.com 1.10,2013-06-26 21:11:00,
2013-06-26 17:25:00,71.9,69.0,29.83,SSW,201,3.0,7.0,91,0.00,,,1.33,weatherlink.com 1.10,2013-06-26 21:25:00,
2013-06-26 17:40:00,72.2,70.0,29.84,WSW,239,3.0,5.0,91,0.00,,,1.33,weatherlink.com 1.10,2013-06-26 21:40:00,
2013-06-26 17:55:00,72.5,70.0,29.83,ESE,119,2.0,4.0,92,0.01,,,1.34,weatherlink.com 1.10,2013-06-26 21:55:00,
2013-06-26 18:11:00,72.6,70.0,29.82,ESE,115,2.0,5.0,92,0.01,,,1.34,weatherlink.com 1.10,2013-06-26 22:11:00,
2013-06-26 18:25:00,73.5,71.0,29.82,SW,223,3.0,5.0,92,0.01,,,1.34,weatherlink.com 1.10,2013-06-26 22:25:00,
2013-06-26 18:41:00,74.4,71.0,29.83,SE,125,7.0,8.0,90,0.01,,,1.34,weatherlink.com 1.10,2013-06-26 22:41:00,
2013-06-26 18:56:00,73.9,71.0,29.84,South,180,3.0,6.0,89,0.00,,,1.34,weatherlink.com 1.10,2013-06-26 22:56:00,
2013-06-26 19:11:00,73.9,71.0,29.84,SE,128,4.0,6.0,89,0.00,,,1.34,weatherlink.com 1.10,2013-06-26 23:11:00,
2013-06-26 19:25:00,73.9,71.0,29.83,ESE,108,4.0,7.0,89,0.00,,,1.34,weatherlink.com 1.10,2013-06-26 23:25:00,
2013-06-26 19:41:00,74.0,70.0,29.84,South,186,5.0,5.0,88,0.00,,,1.34,weatherlink.com 1.10,2013-06-26 23:41:00,
2013-06-26 19:56:00,73.7,71.0,29.84,SSW,194,1.0,7.0,90,0.00,,,1.34,weatherlink.com 1.10,2013-06-26 23:56:00,
2013-06-26 20:11:00,73.4,71.0,29.84,SSW,196,2.0,5.0,91,0.00,,,1.34,weatherlink.com 1.10,2013-06-27 00:11:00,
2013-06-26 20:27:00,72.9,70.0,29.84,SSW,202,4.0,7.0,91,0.00,,,1.34,weatherlink.com 1.10,2013-06-27 00:27:00,
2013-06-26 20:41:00,72.6,70.0,29.84,SSW,197,7.0,11.0,91,0.00,,,1.34,weatherlink.com 1.10,2013-06-27 00:41:00,
2013-06-26 20:57:00,71.9,69.0,29.85,SSW,200,4.0,10.0,91,0.00,,,1.34,weatherlink.com 1.10,2013-06-27 00:57:00,
2013-06-26 21:11:00,71.3,69.0,29.85,SSW,195,7.0,9.0,93,0.00,,,1.34,weatherlink.com 1.10,2013-06-27 01:11:00,
2013-06-26 21:27:00,70.9,69.0,29.85,SSW,194,7.0,9.0,94,0.00,,,1.34,weatherlink.com 1.10,2013-06-27 01:27:00,
2013-06-26 21:41:00,70.8,69.0,29.86,SSW,196,7.0,12.0,94,0.00,,,1.34,weatherlink.com 1.10,2013-06-27 01:41:00,
2013-06-26 21:57:00,70.6,69.0,29.85,SSW,200,5.0,8.0,95,0.00,,,1.34,weatherlink.com 1.10,2013-06-27 01:57:00,
2013-06-26 22:11:00,70.4,69.0,29.84,SSW,194,3.0,5.0,95,0.00,,,1.34,weatherlink.com 1.10,2013-06-27 02:11:00,
2013-06-26 22:27:00,70.3,69.0,29.84,SSW,198,7.0,7.0,96,0.00,,,1.34,weatherlink.com 1.10,2013-06-27 02:27:00,
2013-06-26 22:41:00,70.3,69.0,29.84,SSW,192,3.0,9.0,96,0.00,,,1.34,weatherlink.com 1.10,2013-06-27 02:41:00,
2013-06-26 22:57:00,70.1,69.0,29.83,South,188,2.0,6.0,96,0.00,,,1.34,weatherlink.com 1.10,2013-06-27 02:57:00,
2013-06-26 23:11:00,70.0,69.0,29.84,SSW,207,5.0,6.0,96,0.00,,,1.34,weatherlink.com 1.10,2013-06-27 03:11:00,
2013-06-26 23:26:00,69.5,69.0,29.84,SSW,194,7.0,9.0,97,0.00,,,1.34,weatherlink.com 1.10,2013-06-27 03:26:00,
2013-06-26 23:41:00,69.6,69.0,29.83,SSW,198,5.0,9.0,97,0.00,,,1.34,weatherlink.com 1.10,2013-06-27 03:41:00,
2013-06-26 23:57:00,69.6,69.0,29.83,SSW,192,7.0,8.0,97,0.00,,,1.34,weatherlink.com 1.10,2013-06-27 03:57:00,